Flight Track Log - Related Links

Times and Time Zones

All times are in EDT time to prevent confusion due to time zone crossing. See the N436MA flight status page for this flight to view local times or setup timezone preferences in your user account.

Time Position Orientation Groundspeed Altitude Reporting Facility
EDT Latitude Longitude Course Direction KTS MPH feet Rate Location/Type
Sat 12:20:00 PM 37.3077 -78.9743 141° Southeast  Level FlightAware Approximate
Sat 12:21:00 PM 37.3053 -78.9349 78° East  Level FlightAware Approximate
Sat 12:21:26 PM 37.3167 -78.9606 71° East 141 162 5,000  Level Washington Center
Sat 12:22:00 PM 37.3127 -78.8910 78° East  Level FlightAware Approximate
Sat 12:22:24 PM 37.3267 -78.9036 78° East 150 173 5,000  Level Washington Center
Sat 12:23:00 PM 37.3200 -78.8471 78° East  Level FlightAware Approximate
Sat 12:23:24 PM 37.3361 -78.8569 76° East 156 180 5,000  Level Washington Center
Sat 12:24:00 PM 37.3273 -78.8032 78° East  Level FlightAware Approximate
Sat 12:24:25 PM 37.3461 -78.8053 76° East 156 180 5,100  Level Washington Center
Sat 12:25:00 PM 37.3357 -78.7597 67° East  Level FlightAware Approximate
Sat 12:25:26 PM 37.3536 -78.7583 79° East 156 180 5,000  Level Washington Center
Sat 12:26:24 PM 37.3653 -78.7042 75° East 156 180 5,100 51 Climbing Washington Center
Sat 12:27:24 PM 37.3750 -78.6522 77° East 156 180 5,100  Level Washington Center
Sat 12:28:25 PM 37.3869 -78.5925 76° East 156 180 5,100  Level Washington Center
Sat 12:29:25 PM 37.4008 -78.5408 71° East 156 180 5,100 -50 Level Washington Center
Sat 12:30:26 PM 37.4083 -78.4861 80° East 156 180 5,000 -50 Descending Washington Center
Sat 12:31:24 PM 37.4181 -78.4292 78° East 156 180 5,000  Level Washington Center
Sat 12:32:24 PM 37.4275 -78.3822 76° East 161 185 5,000  Level Washington Center
Sat 12:33:24 PM 37.4392 -78.3253 76° East 161 185 5,000  Level Washington Center
Sat 12:34:25 PM 37.4489 -78.2733 77° East 161 185 5,000 -49 Level Washington Center
Sat 12:35:26 PM 37.4606 -78.2133 76° East 161 185 4,900  Descending Washington Center
Sat 12:36:27 PM 37.4658 -78.1561 83° East 161 185 5,000 51 Climbing Washington Center
Sat 12:37:24 PM 37.4775 -78.1042 74° East 161 185 5,000  Level Washington Center
Sat 12:38:25 PM 37.4869 -78.0519 77° East 161 185 5,000  Level Washington Center
Sat 12:39:25 PM 37.5108 -78.0031 58° Northeast 161 185 5,000  Level Washington Center
Sat 12:40:26 PM 37.5306 -77.9567 62° Northeast 161 185 5,000  Level Washington Center
Sat 12:41:24 PM 37.5522 -77.9100 60° Northeast 155 178 5,000  Level Washington Center
Sat 12:42:24 PM 37.5719 -77.8583 64° Northeast 155 178 5,000  Level Washington Center
Sat 12:43:24 PM 37.5897 -77.8089 66° East 155 178 5,000  Level Washington Center
Sat 12:45:36 PM 37.6333 -77.7000 63° Northeast 158 182 5,000  Level Potomac TRACON
Sat 12:47:00 PM 37.6133 -77.6422 114° Southeast  Level FlightAware Approximate
Sat 12:48:37 PM 37.7000 -77.5500 114° Southeast 157 181 5,000  Level Potomac TRACON
Sat 12:50:38 PM 37.7333 -77.4500 67° East 155 178 5,000  Level Potomac TRACON
Sat 12:51:39 PM 37.7500 -77.4000 67° East 160 184 5,000  Level Potomac TRACON
Sat 12:53:39 PM 37.8000 -77.3000 58° Northeast 161 185 5,000  Level Potomac TRACON
Sat 12:54:00 PM 37.5130 -77.3539 114° Southeast  Level FlightAware Approximate
Sat 12:55:00 PM 37.8227 -77.2370 66° East  Level FlightAware Approximate
Sat 12:56:40 PM 37.8500 -77.1667 66° East 166 191 5,000  Level Potomac TRACON
Sat 12:57:41 PM 37.8667 -77.1000 72° East 156 180 5,000  Level Potomac TRACON
Sat 12:58:41 PM 37.8833 -77.0500 67° East 160 184 5,000  Level Potomac TRACON
Sat 12:59:41 PM 37.9167 -77.0167 38° Northeast 155 178 5,000  Level Potomac TRACON
Sat 01:00:39 PM 37.9297 -76.9714 70° East 155 178 5,000  Level Washington Center
Sat 01:01:52 PM 37.9492 -76.9083 69° East 160 184 5,000  Level Washington Center
Sat 01:02:00 PM 37.9396 -76.9097 66° East  Level FlightAware Approximate
Sat 01:02:52 PM 37.9706 -76.8614 60° Northeast 159 183 5,000  Level Washington Center
Sat 01:03:53 PM 37.9961 -76.8144 55° Northeast 158 182 5,000  Level Washington Center
Sat 01:04:48 PM 38.0214 -76.7806 47° Northeast 151 174 5,000  Level Washington Center
Sat 01:05:48 PM 38.0531 -76.7389 46° Northeast 156 180 5,000  Level Washington Center
Sat 01:06:49 PM 38.0847 -76.6972 46° Northeast 161 185 5,000  Level Washington Center
Sat 01:07:49 PM 38.1244 -76.6844 14° North 152 175 5,000  Level Washington Center
Sat 01:08:44 PM 38.1622 -76.6667 20° North 152 175 5,000  Level Washington Center
Sat 01:09:45 PM 38.2019 -76.6539 14° North 153 176 5,000  Level Washington Center
Sat 01:10:46 PM 38.2436 -76.6361 19° North 147 169 5,000  Level Washington Center
Sat 01:11:47 PM 38.2833 -76.6233 14° North 144 166 5,000  Level Washington Center
Sat 01:12:47 PM 38.3211 -76.6053 21° North 149 171 5,000  Level Washington Center
Sat 01:13:48 PM 38.3608 -76.5953 11° North 151 174 5,000  Level Washington Center
Sat 01:14:49 PM 38.4006 -76.5747 22° Northeast 152 175 5,000  Level Washington Center
Sat 01:15:50 PM 38.4364 -76.5328 43° Northeast 159 183 5,000  Level Washington Center
Sat 01:16:50 PM 38.4658 -76.4986 42° Northeast 159 183 5,000  Level Washington Center
Sat 01:17:51 PM 38.4975 -76.4564 46° Northeast 158 182 5,000  Level Washington Center
Sat 01:20:16 PM 38.5667 -76.3500 50° Northeast 157 181 5,000 -29 Level Potomac TRACON
Sat 01:21:16 PM 38.6000 -76.3167 38° Northeast 163 188 4,900 -313 Descending Potomac TRACON
Sat 01:22:11 PM 38.6500 -76.3167 360° North 154 177 4,400 -522 Descending Potomac TRACON
Sat 01:23:11 PM 38.6833 -76.3000 21° North 164 189 3,900 -500 Descending Potomac TRACON
Sat 01:24:11 PM 38.7333 -76.3000 360° North 162 186 3,400 -400 Descending Potomac TRACON
Sat 01:25:11 PM 38.7833 -76.3000 360° North 162 186 3,100 -198 Descending Potomac TRACON
Sat 01:26:12 PM 38.8167 -76.3333 322° Northwest 144 166 3,000 -50 Descending Potomac TRACON
Sat 01:27:12 PM 38.8500 -76.3500 339° North 140 161 3,000  Level Potomac TRACON
Sat 01:28:18 PM 38.8833 -76.3833 322° Northwest 138 159 3,000  Level Potomac TRACON
Sat 01:29:12 PM 38.9167 -76.4167 322° Northwest 140 161 3,000  Level Potomac TRACON
Sat 01:30:12 PM 38.9333 -76.4333 322° Northwest 140 161 3,000 -52 Level Potomac TRACON
Sat 01:31:07 PM 38.9667 -76.4667 322° Northwest 147 169 2,900 -209 Descending Potomac TRACON
Sat 01:32:07 PM 39.0000 -76.5000 322° Northwest 149 171 2,600 -350 Descending Potomac TRACON
Sat 01:33:07 PM 39.0333 -76.5333 322° Northwest 157 181 2,200 -298 Descending Potomac TRACON
Sat 01:34:08 PM 39.0667 -76.5667 322° Northwest 145 167 2,000 -189 Descending Potomac TRACON
Sat 01:35:14 PM 39.1000 -76.5833 339° North 128 147 1,800 -429 Descending Potomac TRACON
Sat 01:36:14 PM 39.1333 -76.6167 322° Northwest 96 110 1,100 -522 Descending Potomac TRACON
Sat 01:37:09 PM 39.1500 -76.6333 322° Northwest 90 104 800 -327 Descending Potomac TRACON
Sat 01:39:00 PM 39.1667 -76.6667 330° Northwest  Level FlightAware Approximate
Sat 01:46:00 PM 39.1754 -76.6683 330° Northwest  Level Estimated
Sat 01:47:00 PM 39.1754 -76.6683 330° Northwest  Level Estimated
Sat 01:48:00 PM 39.1754 -76.6683 330° Northwest  Level Estimated

Login

Don't have an account? Register now (free) for customized features, flight alerts, and more!